Starlink 1992

operational
NORAD ID: 47632 Int'l Des: 2021-012 Owner: SPXS Country: US Constellation: starlink
LEOCIRCULARSTARLINK_TYPE

Über Starlink 1992

Beschreibung wird geladen...

Live-Position

3D-Globus wird geladen...

Nächste Überflüge

Höhenverlauf

Altitude vs Time

uPlot chart will show altitude changes over time

Zweizeiliger Elementsatz

1 47632U 21012N 25350.27737314 .00003632 00000-0 26256-3 0 9995
2 47632 53.0550 351.0707 0001285 89.3344 270.7792 15.06408862268721
Epoch: 16. Dez. 2025 • Age: 27 hours

Aktueller Status

Höhe 548.0 km
Geschwindigkeit 7.59 km/s
Subsatellitenpunkt 27.50°N, 134.39°E
Startdatum 16. Feb. 2021
Alter 4.8 years
Typ internet

Technische Details

Klassifizierung Payload
Masse 260.00 kg
Trockenmasse 248.00 kg
Gesamtmasse 260.00 kg
Länge 0.20 m
Durchmesser 2.80 m
Spannweite 9.00 m
Form Box + pan
Hersteller SPXS
Bus-Typ Starlink
Phasenstatus In Orbit
Besitzer/Staat SPXS/US

Große Konstellationen

Loading constellations...